User: anonymous   Login
Location: El Centro
(32.7920°N, 115.5620°W)
Time: 04:51:47
(UTC-07:00)
Language:

Hamsat - Orbit

View from above orbital plane
View from above orbital plane
View from above satellite
View from above satellite

Ground track
Ground track

The orbit data is extracted from the following two-line orbital elements,

1 28650U 05017B   15142.52187194  .00001747  00000-0  19802-3 0  9996
2 28650 097.5739 136.1502 0025806 115.0130 245.3771 14.87341390543633
Epoch (UTC): 22 May 2015 12:31:29
Eccentricity: 0.0025806
inclination: 97.5739°
perigee height: 588 km
apogee height: 624 km
right ascension of ascending node: 136.1502°
argument of perigee: 115.0130°
revolutions per day: 14.87341390
mean anomaly at epoch: 245.3771°
orbit number at epoch: 54363

The dashed part of the orbit path shows where the satellite is in the earth's shadow,  

DLR